Regional Weather Roundup
Issued by NWS

Home | Current Version | Previous Version | Text Only | Print | Product List | Glossary Off
Versions: 1 2 3 4 5 6 7 8 9 10 11 12 13 14 15 16 17 18 19 20 21 22 23 24 25 26 27 28 29 30 31 32 33 34 35 36 37 38 39 40 41 42 43 44 45 46 47 48 49 50

000
ASUS43 KDMX 272007
RWRIA

WEATHER ROUNDUP FOR IOWA
NATIONAL WEATHER SERVICE DES MOINES IA
300 PM CDT WED AUG 27 2014

NOTE: "FAIR" INDICATES FEW OR NO CLOUDS BELOW 12,000 FEET WITH NO
SIGNIFICANT WEATHER AND/OR OBSTRUCTIONS TO VISIBILITY.

* - THESE STATIONS ARE NOT NWS STATIONS...THUS NOT UNDER NWS
QUALITY CONTROL.  THEY ALSO DO NOT REPORT WEATHER SUCH
AS PRECIPITATION OR FOG.

IAZ001>003-012>014-020>022-031>034-043>046-272100-
   NORTHWEST IOWA

CITY           SKY/WX    TMP DP  RH WIND       PRES   REMARKS
CARROLL *      CLOUDY    70  66  88 SE6       30.15F
CHEROKEE *     CLOUDY    73  66  78 SE8       30.14S
DENISON *      PTSUNNY   70  70 100 SE6G16    30.11F
LE MARS *      PTSUNNY   73  68  83 S9G15     30.13S
ORANGE CITY *  SUNNY     75  63  64 SE8       30.13S
SHELDON *      SUNNY     72  64  78 E12G17    30.12F
SIOUX CITY     CLOUDY    71  67  87 S8        30.13F
SPENCER        CLOUDY    73  62  68 SE9       30.15F
STORM LAKE *   PTSUNNY   72  68  88 SE14      30.14F
$$

IAZ055>058-069>071-079>083-090>094-272100-
   SOUTHWEST IOWA

CITY           SKY/WX    TMP DP  RH WIND       PRES   REMARKS
ATLANTIC *     DRIZZLE   70  68  94 CALM      30.11F
AUDUBON *      LGT RAIN  73  70  88 CALM      30.15F
CLARINDA *     MOSUNNY   72  70  94 CALM      30.11R
COUNCIL BLFS * LGT RAIN  70  70 100 SE9       30.08F
CRESTON *      MOSUNNY   72  70  94 NE8       30.12F
HARLAN  *      MOSUNNY   70  70 100 CALM      30.15F
LAMONI         CLOUDY    75  69  81 NE6       30.12F
RED OAK *      CLOUDY    70  70 100 NW8       30.09F
SHENANDOAH *   MOSUNNY   73  70  88 CALM      30.10F
$$

IAZ047>049-059>061-072>074-084-272100-
   CENTRAL IOWA

CITY           SKY/WX    TMP DP  RH WIND       PRES   REMARKS
AMES           CLOUDY    74  67  78 SE5       30.15F
ANKENY *       CLOUDY    73  68  83 CALM      30.14F
CHARITON *     CLOUDY    75  70  83 E5        30.14F
DES MOINES     CLOUDY    75  66  73 CALM      30.14F
GRINNELL*      CLOUDY    73  64  73 E5        30.16F
KNOXVILLE *    CLOUDY    73  66  78 CALM      30.13F
MARSHALLTOWN   CLOUDY    75  64  68 E3        30.15F
PELLA *        CLOUDY    75  68  78 CALM      30.15F
PERRY *          N/A     72  66  83 SE8       30.14F
$$

IAZ004>006-015-016-023>025-035-036-272100-
   NORTH CENTRAL IOWA

CITY           SKY/WX    TMP DP  RH WIND       PRES   REMARKS
ALGONA *       SUNNY     73  63  68 SE6       30.16F
CLARION *      MOSUNNY   73  63  68 SE7       30.16F
ESTHERVILLE    CLOUDY    71  61  70 SE7       30.16F
FORT DODGE *   CLOUDY    72  63  73 E8        30.17F
MASON CITY     CLOUDY    73  59  61 SE7       30.19F
FOREST CITY *  SUNNY     72  59  64 SE3       30.17F
IOWA FALLS *   CLOUDY    72  63  73 CALM      30.19S
$$

IAZ007>011-017>019-026>030-037>042-050>054-066-272100-
   NORTHEAST IOWA

CITY           SKY/WX    TMP DP  RH WIND       PRES   REMARKS
CEDAR RAPIDS   CLOUDY    75  64  68 E7        30.14F
CHARLES CITY * MOSUNNY   73  59  60 VRB5      30.18F
CLINTON *      CLOUDY    75  61  60 NW3       30.18F
DUBUQUE        CLOUDY    74  56  53 VRB3      30.18F
MONTICELLO *   MOSUNNY   75  61  60 CALM      30.16F
OELWEIN *      SUNNY     73  61  64 SE6       30.18F
WATERLOO       CLOUDY    76  58  53 NE5       30.15F
$$

IAZ064-065-067-068-078-272100-
   EAST CENTRAL IOWA

CITY           SKY/WX    TMP DP  RH WIND       PRES   REMARKS
DAVENPORT      CLOUDY    75  65  70 N5        30.16F
IOWA CITY      CLOUDY    74  66  76 NE7       30.15F
MT. PLEASANT * CLOUDY    75  68  78 E7        30.12F
MUSCATINE *    SUNNY     77  66  69 NE7       30.13F
QUAD CITIES    CLOUDY    79  63  57 NW5       30.14F HX  80
$$

IAZ062-063-075>077-085>089-095>099-272100-
   SOUTHEAST IOWA

CITY           SKY/WX    TMP DP  RH WIND       PRES   REMARKS
BURLINGTON     CLOUDY    77  70  79 NE6       30.12F
FAIRFIELD *    MOSUNNY   73  68  83 CALM      30.14S
FORT MADISON * SUNNY     77  72  83 E6        30.12F
KEOKUK *       SUNNY     77  72  83 NE3       30.11F
OSKALOOSA *      N/A     75  68  78 CALM      30.14F
CENTERVILLE *  MOSUNNY   77  72  83 W3        30.15S
OTTUMWA        CLOUDY    76  68  76 CALM      30.13F
WASHINGTON *   SUNNY     75  70  83 NE10      30.12F
$$

ABBREVIATIONS USED IN REMARKS
   TC - TEMPERATURES IN CELSIUS
  WCI - WIND CHILL INDEX
   HX - HEAT INDEX
  VSB - VISIBILITY
$$



USA.gov is the U.S. government's official web portal to all federal, state and local government web resources and services.